TEVEL2-2

Last updated on Tue Aug 25 2026 00:03:14 GMT+0000 (Coordinated Universal Time)

1 63219U 25052K 26236.17285483 .00017115 00000+0 49041-3 0 9997 2 63219 97.3778 132.2066 0001156 185.4014 174.7218 15.35977410 80527
UTC large
Height (km)
Speed (km/s)
/
Latitude / Longitude
Inclination (degrees)
Orbital Period (minutes)
Azimuth
Elevation
Range (km)
Doppler Factor

Next 0 passes for location: London (51.5072 / 0.1276)

No passes found over London.
TEVEL2-2